Flag for Canada Weather past 2 weeks in Sarnia, Ontario, Canada

Now
72 °F

Broken clouds.


Feels Like: 71 °F
Forecast: 64 / 78 °F
Wind: 8 mph from Northeast

Location: Sarnia Airport

Current Time: Aug 21, 2014 at 8:10:18 PM

Latest Report: Aug 21, 2014 at 7:00 PM


Visibility: 9 mi

Pressure: 29.96 "Hg

Humidity: 83%

Dew point: 66 °F

Location of SarniaLocation

Historic Weather in Sarnia — Graph

°F

Sarnia temperature yesterday

Maximum temperature yesterday: 79 °F (at 2:00 PM)
Minimum temperature yesterday: 64 °F (at 12:00 AM)
Average temperature yesterday: 71 °F

Past Weeks' High & Low Weather Summary

 TemperatureHumidityPressure
High79 °F (Aug 10, 3:00 PM)100% (Aug 9, 5:00 AM)30.19 "Hg (Aug 9, 5:00 AM)
Low50 °F (Aug 15, 6:00 AM)38% (Aug 15, 5:00 PM)29.61 "Hg (Aug 12, 12:00 AM)
Average66 °F80%29.95 "Hg
* Reported Aug 6 7:00 PM — Aug 21 7:00 PM, Sarnia, Weather by CustomWeather, © 2014

Note: Actual official high and low records may vary slightly from our data, if they occured in-between our weather recording intervals... More about our weather records

Advertising

Sarnia weather history for previous 24 hours

 ConditionsComfort  
Time TempWeatherWind HumidityBarometerVisibility
7:00 PM
Aug 21
72 °FBroken clouds.8 mph83%29.96 "Hg9 mi
6:00 PM73 °FSunny.5 mph78%29.96 "Hg9 mi
5:00 PM73 °FSunny.5 mph78%29.96 "Hg9 mi
4:00 PM77 °FPassing clouds.5 mph74%29.95 "Hg9 mi
3:00 PM77 °FScattered clouds.5 mph65%29.97 "Hg9 mi
2:00 PM73 °FMostly cloudy.3 mph74%29.99 "Hg9 mi
1:00 PM72 °FSunny.6 mph73%29.99 "Hg9 mi
12:00 PM70 °FPassing clouds.6 mph78%30.01 "Hg9 mi
11:00 AM70 °FPartly sunny.7 mph83%30.01 "Hg9 mi
10:53 AM70 °FBroken clouds.6 mph83%30.01 "Hg9 mi
10:00 AM70 °FScattered clouds.7 mph83%29.99 "Hg9 mi
9:00 AM68 °FPassing clouds.6 mph88%29.98 "Hg9 mi
8:04 AM68 °FMostly cloudy.3 mph88%29.99 "Hg9 mi
7:00 AM66 °FLow clouds.6 mph94%29.97 "Hg9 mi
6:00 AM64 °FClear.2 mph94%29.95 "Hg9 mi
5:00 AM64 °FClear.3 mph94%29.93 "Hg9 mi
4:00 AM66 °FClear.5 mph88%29.92 "Hg9 mi
3:00 AM68 °FClear.6 mph88%29.93 "Hg9 mi
2:00 AM68 °FClear.6 mph88%29.94 "Hg9 mi
1:00 AM66 °FClear.5 mph94%29.93 "Hg9 mi
12:00 AM66 °FClear.6 mph94%29.93 "Hg9 mi
11:00 PM
Aug 20
66 °FClear.5 mph94%29.91 "Hg9 mi
10:00 PM68 °FMostly cloudy.3 mph94%29.90 "Hg9 mi
9:00 PM68 °FScattered clouds.No wind94%29.89 "Hg9 mi
8:00 PM70 °FPassing clouds.6 mph88%29.88 "Hg9 mi
Weather by CustomWeather, © 2014

See weather overviewHow to use our weather pages